Weather History for Glasgow, MT

Change the Weather History Date:

Monday, January 7, 2013

  Actual Average Record
Temperature  
Mean Temperature 24 °F 13 °F  
Max Temperature 33 °F 23 °F 55 °F (2002)
Min Temperature 15 °F 4 °F -42 °F (1937)
Degree Days  
Heating Degree Days 41 52  
Month to date heating degree days 349 364  
Since 1 July heating degree days 3879 3866  
Cooling Degree Days 0 0  
Month to date cooling degree days 0 0  
Year to date cooling degree days 0 0  
Moisture  
Dew Point 17 °F    
Average Humidity 77    
Maximum Humidity 88    
Minimum Humidity 66    
Precipitation  
Precipitation T in 0.01 in 0.40 in (1901)
Month to date precipitation 0.06 0.10  
Year to date precipitation 0.06 0.10  
Snow  
Snow T in 0.30 in 3.90 in (1969)
Month to date snowfall 1.5 2.2  
Since 1 July snowfall 24.1 16.8  
Snow Depth 4.00 in    
Sea Level Pressure  
Sea Level Pressure 29.82 in    
Wind  
Wind Speed 8 mph (SW)    
Max Wind Speed 17 mph    
Max Gust Speed 23 mph    
Visibility 10 miles    
Events Snow    
T = Trace of Precipitation, MM = Missing Value Source: NWS Daily Summary

Daily Weather History Graph

Daily Weather History Graph

Search for Another Location

Airport:

Trip Planner

Search our weather history database for the weather conditions in past years. The results will help you decide how hot, cold, wet, or windy it might be!

Date:

Astronomy

Jan. 07, 2013 Rise Set
Actual Time 7:56 AM MST 4:30 PM MST
Civil Twilight 7:20 AM MST 5:06 PM MST
Nautical Twilight 6:40 AM MST 5:45 PM MST
Astronomical Twilight 6:03 AM MST 6:23 PM MST
Moon 3:17 AM MST (1/7) 12:47 PM MST (1/7)
Length of Visible Light 9h 45m
Length of Day
8h 34m
Waning Crescent, 22% of the Moon is Illuminated
Jan 7
Waning Crescent
Jan 11
New
Jan 18
First Quarter
Jan 26
Full
Feb 3
Last Quarter

Hourly Weather History & Observations

Time (MST) Temp. Windchill Dew Point Humidity Pressure Visibility Wind Dir Wind Speed Gust Speed Precip Events Conditions
12:53 AM 24.1 °F 19.7 °F 16.0 °F 71% 29.88 in 10.0 mi WNW 3.5 mph - N/A   Clear
1:53 AM 24.1 °F 15.2 °F 16.0 °F 71% 29.88 in 10.0 mi WNW 8.1 mph - N/A   Clear
2:53 AM 21.9 °F 14.5 °F 15.1 °F 75% 29.90 in 10.0 mi West 5.8 mph - N/A   Clear
3:53 AM 23.0 °F 15.8 °F 14.0 °F 68% 29.90 in 10.0 mi West 5.8 mph - N/A   Clear
4:53 AM 19.9 °F 13.4 °F 14.0 °F 78% 29.91 in 10.0 mi NW 4.6 mph - N/A   Clear
5:53 AM 19.0 °F 12.3 °F 14.0 °F 81% 29.91 in 10.0 mi NW 4.6 mph - N/A   Clear
6:53 AM 16.0 °F 8.8 °F 12.0 °F 84% 29.92 in 10.0 mi West 4.6 mph - N/A   Clear
7:53 AM 16.0 °F 7.4 °F 12.9 °F 88% 29.93 in 10.0 mi NW 5.8 mph - N/A   Clear
8:53 AM 17.1 °F 7.6 °F 12.0 °F 81% 29.94 in 10.0 mi West 6.9 mph - N/A   Clear
9:53 AM 19.0 °F 11.1 °F 14.0 °F 81% 29.95 in 10.0 mi NW 5.8 mph - N/A   Clear
10:53 AM 21.9 °F 13.4 °F 14.0 °F 72% 29.94 in 10.0 mi NW 6.9 mph - N/A   Clear
11:53 AM 25.0 °F 18.1 °F 16.0 °F 69% 29.92 in 10.0 mi West 5.8 mph - N/A   Clear
12:53 PM 27.0 °F - 17.1 °F 66% 29.88 in 10.0 mi Calm Calm - N/A   Clear
1:53 PM 26.1 °F 18.4 °F 18.0 °F 71% 29.86 in 10.0 mi South 6.9 mph - N/A   Clear
2:53 PM 21.9 °F 12.5 °F 15.1 °F 75% 29.85 in 10.0 mi East 8.1 mph - N/A   Clear
3:53 PM 21.9 °F 12.5 °F 14.0 °F 72% 29.82 in 10.0 mi East 8.1 mph - N/A   Clear
4:53 PM 17.1 °F 3.6 °F 12.0 °F 81% 29.82 in 10.0 mi East 12.7 mph - N/A   Clear
5:53 PM 17.1 °F 3.6 °F 12.0 °F 81% 29.80 in 10.0 mi ESE 12.7 mph - N/A   Clear
6:53 PM 17.1 °F 2.0 °F 12.0 °F 81% 29.76 in 10.0 mi ESE 16.1 mph - N/A   Clear
7:53 PM 21.9 °F 8.7 °F 17.1 °F 82% 29.72 in 10.0 mi ESE 15.0 mph - N/A   Partly Cloudy
8:53 PM 26.1 °F 14.0 °F 19.9 °F 78% 29.68 in 10.0 mi ESE 15.0 mph - N/A   Overcast
9:53 PM 32.0 °F 23.6 °F 23.0 °F 69% 29.65 in 10.0 mi SSE 10.4 mph - N/A   Overcast
10:22 PM 32.0 °F 23.6 °F 24.8 °F 75% 29.55 in 4.0 mi South 10.4 mph - 0.00 in Snow Light Snow
10:53 PM 32.0 °F 23.6 °F 28.9 °F 88% 29.62 in 8.0 mi South 10.4 mph - 0.00 in Snow Light Snow
11:53 PM 33.1 °F 24.9 °F 30.9 °F 92% 29.59 in 10.0 mi South 10.4 mph - 0.00 in   Overcast